1495623600.61,6838,15.81,73620.3,6.81,5.81,5.77,0,*4E
1495623601.86,6839,15.81,73624.5,6.81,6.47,6.51,0,*41
1495623603.08,6840,15.81,73622.3,6.81,6.13,6.11,0,*4A
1495623604.3,6841,15.81,73620.3,6.81,5.99,5.93,0,*43
1495623605.52,6842,15.81,73624.8,6.83,6.51,6.57,0,*4E
1495623606.72,6843,15.81,73620.3,6.81,5.99,5.99,0,*4B
1495623607.9,6844,15.81,73620.3,6.83,5.67,5.59,0,*43
1495623609.1,6845,15.81,73624.8,6.81,5.67,5.59,0,*40
1495623610.29,6846,15.81,73622.0,6.81,5.49,5.45,0,*42
1495623611.48,6847,15.81,73622.8,6.81,5.29,5.19,0,*4C
1495623612.7,6848,15.81,73620.5,6.79,4.75,4.75,0,*47
1495623613.94,6849,15.81,73624.0,6.75,4.93,5.01,0,*40
1495623615.17,6850,15.81,73620.0,6.75,4.79,4.71,0,*4A
1495623616.34,6851,15.81,73622.0,6.79,5.19,5.19,0,*4F
1495623617.51,6852,15.81,73624.0,6.75,5.37,5.37,0,*40
1495623618.69,6853,15.81,73626.5,6.75,5.15,5.11,0,*45
1495623619.86,6854,15.81,73626.8,6.75,4.23,4.11,0,*47
1495623621.06,6855,15.81,73622.3,6.73,4.33,4.33,0,*41
1495623622.31,6856,15.81,73620.8,6.73,4.79,4.79,0,*42
1495623623.53,6857,15.81,73620.5,6.71,4.79,4.79,0,*41
1495623624.71,6858,15.81,73620.0,6.71,5.23,5.11,0,*4F
1495623625.94,6859,15.81,73624.5,6.71,4.79,4.75,0,*43
1495623627.12,6860,15.81,73626.0,6.67,4.45,4.33,0,*43
1495623628.35,6861,15.81,73622.0,6.67,4.63,4.63,0,*43
1495623629.52,6862,15.81,73620.5,6.67,4.45,4.45,0,*40
1495623630.72,6863,15.81,73620.8,6.67,3.93,4.01,0,*4D
1495623631.9,6864,15.81,73620.3,6.63,4.33,4.33,0,*42
1495623633.11,6865,15.81,73620.8,6.65,5.11,5.11,0,*45
1495623634.3,6866,15.81,73622.8,6.63,5.49,5.51,0,*49
1495623635.47,6867,15.81,73622.3,6.63,5.41,5.41,0,*41
1495623636.7,6868,15.81,73624.3,6.65,5.99,5.93,0,*42
1495623637.87,6869,15.81,73622.5,6.63,5.99,5.95,0,*43
1495623639.11,6870,15.81,73624.3,6.65,5.27,5.27,0,*41
1495623640.28,6871,15.81,73622.3,6.63,5.71,5.71,0,*46
1495623641.46,6872,15.81,73624.3,6.63,5.19,5.15,0,*49
1495623642.68,6873,15.81,73624.5,6.63,5.73,5.73,0,*44
1495623643.86,6874,15.81,73622.3,6.63,5.95,5.95,0,*43
1495623645.03,6875,15.81,73626.3,6.63,5.37,5.41,0,*43
1495623646.22,6876,15.81,73624.0,6.63,5.29,5.27,0,*4F
1495623647.39,6877,15.81,73624.5,6.63,5.37,5.29,0,*4F
1495623648.55,6878,15.81,73624.8,6.63,5.37,5.29,0,*40
1495623649.73,6879,15.81,73622.3,6.63,5.59,5.63,0,*47
1495623650.9,6880,15.81,73622.8,6.63,5.41,5.41,0,*48
1495623652.1,6881,15.81,73624.5,6.61,5.23,5.11,0,*4A
1495623653.28,6882,15.81,73620.8,6.59,4.45,4.53,0,*44
1495623654.45,6883,15.81,73624.0,6.59,3.85,3.85,0,*42
1495623655.65,6884,15.81,73622.5,6.59,4.79,4.85,0,*46
1495623656.89,6885,15.81,73624.5,6.59,4.75,4.75,0,*44
1495623658.14,6886,15.81,73620.8,6.53,3.67,3.75,0,*4E
1495623659.34,6887,15.81,73620.8,6.53,4.11,4.19,0,*44
1495623660.53,6888,15.81,73622.0,6.53,4.57,4.49,0,*4C
1495623661.7,6889,15.81,73620.5,6.49,4.89,4.89,0,*49
1495623662.89,6890,15.81,73624.3,6.51,4.81,4.81,0,*48
1495623664.07,6891,15.81,73622.8,6.49,5.23,5.15,0,*45
1495623665.24,6892,15.81,73622.5,6.49,5.41,5.37,0,*42
1495623666.41,6893,15.81,73622.3,6.49,5.15,5.15,0,*42
1495623667.64,6894,15.81,73622.8,6.49,4.79,4.67,0,*4A
1495623668.81,6895,15.81,73622.5,6.49,4.41,4.41,0,*44
1495623670.03,6896,15.81,73624.5,6.47,4.31,4.27,0,*4E
1495623671.21,6897,15.81,73624.5,6.45,3.81,3.81,0,*4A
1495623672.37,6898,15.81,73622.5,6.45,4.81,4.81,0,*45
1495623673.57,6899,15.81,73624.0,6.43,4.11,4.07,0,*45
1495623674.78,6900,15.81,73624.0,6.41,4.59,4.57,0,*4F
1495623675.97,6901,15.81,73620.5,6.43,4.23,4.23,0,*42
1495623677.15,6902,15.81,73624.3,6.41,4.27,4.27,0,*43
1495623678.35,6903,15.81,73622.5,6.41,5.19,5.27,0,*4F
1495623679.52,6904,15.81,73620.3,6.41,4.57,4.57,0,*45
1495623680.7,6905,15.81,73624.0,6.41,4.45,4.45,0,*44
1495623681.92,6906,15.81,73628.0,6.41,3.97,3.97,0,*47
1495623683.08,6907,15.81,73624.5,6.37,4.85,4.85,0,*47
1495623684.32,6908,15.81,73626.8,6.37,4.71,4.71,0,*48
1495623685.49,6909,15.81,73624.8,6.37,5.23,5.07,0,*4F
1495623686.69,6910,15.81,73620.5,6.39,5.59,5.49,0,*4E
1495623687.89,6911,15.81,73620.8,6.37,4.97,4.85,0,*43
1495623689.07,6912,15.81,73622.5,6.37,5.11,5.11,0,*43
1495623690.24,6913,15.81,73622.8,6.37,5.63,5.63,0,*42
1495623691.41,6914,15.81,73622.8,6.37,5.11,5.07,0,*42
1495623692.64,6915,15.81,73618.3,6.37,4.75,4.71,0,*40
1495623693.81,6916,15.81,73622.0,6.37,5.71,5.67,0,*40
1495623694.99,6917,15.81,73622.3,6.37,5.67,5.67,0,*46
1495623696.17,6918,15.81,73620.3,6.37,5.19,5.07,0,*46
1495623697.37,6919,15.81,73624.8,6.37,5.01,4.89,0,*49
1495623698.53,6920,15.81,73626.5,6.37,5.45,5.45,0,*42
1495623699.75,6921,15.81,73620.8,6.37,5.81,5.81,0,*43
1495623700.92,6922,15.81,73624.3,6.37,5.67,5.67,0,*40
1495623702.17,6923,15.81,73624.8,6.39,5.81,5.81,0,*4F
1495623703.34,6924,15.81,73620.8,6.37,5.41,5.41,0,*46
1495623704.51,6925,15.81,73624.8,6.37,5.23,5.33,0,*46
1495623705.71,6926,15.81,73622.3,6.37,5.07,5.01,0,*42
1495623706.94,6927,15.81,73624.8,6.37,4.31,4.31,0,*45
1495623708.11,6928,15.81,73624.0,6.37,4.49,4.53,0,*41
1495623709.3,6929,15.81,73622.5,6.35,4.19,4.15,0,*45
1495623710.51,6930,15.81,73624.3,6.31,4.37,4.33,0,*41
1495623711.72,6931,15.81,73626.3,6.31,4.27,4.33,0,*41
1495623712.91,6932,15.81,73624.8,6.31,4.57,4.49,0,*48
1495623714.16,6933,15.81,73620.5,6.31,4.67,4.59,0,*4B
1495623715.41,6934,15.81,73624.5,6.31,4.79,4.79,0,*41
1495623716.59,6935,15.81,73622.5,6.29,4.53,4.53,0,*49
1495623717.85,6936,15.81,73624.0,6.27,4.31,4.31,0,*44
1495623719.06,6937,15.81,73626.0,6.27,3.93,3.93,0,*45
1495623720.32,6938,15.81,73622.5,6.27,4.75,4.67,0,*49
1495623721.49,6939,15.81,73622.8,6.25,5.29,5.33,0,*42
1495623722.69,6940,15.81,73622.3,6.25,5.59,5.55,0,*4B
1495623723.88,6941,15.81,73622.8,6.25,5.59,5.67,0,*4B
1495623725.06,6942,15.81,73626.0,6.25,5.67,5.59,0,*48
1495623726.26,6943,15.81,73622.8,6.25,5.71,5.77,0,*42
1495623727.52,6944,15.81,73626.3,6.27,5.05,5.01,0,*45
1495623728.75,6945,15.81,73626.3,6.27,4.93,4.89,0,*4B
1495623729.95,6946,15.81,73624.5,6.27,4.19,4.11,0,*4B
1495623731.18,6947,15.81,73622.3,6.23,3.59,3.67,0,*4B
1495623732.43,6948,15.81,73622.0,6.23,3.37,3.37,0,*49
1495623733.66,6949,15.81,73622.3,6.19,3.19,3.03,0,*4A
1495623734.87,6950,15.81,73620.5,6.19,3.07,2.91,0,*47
1495623736.09,6951,15.81,73622.0,6.15,3.23,3.11,0,*45
1495623737.28,6952,15.81,73618.8,6.15,3.93,3.93,0,*47
1495623738.5,6953,15.81,73622.8,6.15,3.79,3.67,0,*49
1495623739.71,6954,15.81,73620.5,6.13,3.93,3.89,0,*4C
1495623740.94,6955,15.81,73620.3,6.09,3.89,3.79,0,*42
1495623742.19,6956,15.81,73620.5,6.13,3.67,3.67,0,*45
1495623743.45,6957,15.81,73618.8,6.09,3.41,3.45,0,*4B
1495623744.69,6958,15.81,73620.3,6.07,4.05,4.05,0,*4E
1495623745.87,6959,15.81,73620.3,6.07,4.27,4.27,0,*4F
1495623747.07,6960,15.81,73620.3,6.05,4.45,4.33,0,*46
1495623748.3,6961,15.81,73622.3,6.05,4.07,4.01,0,*40
1495623749.53,6962,15.81,73622.8,6.05,4.07,4.01,0,*43
1495623750.76,6963,15.81,73620.0,6.03,3.79,3.79,0,*42
1495623751.93,6964,15.81,73618.3,6.03,3.59,3.59,0,*45
1495623753.14,6965,15.81,73620.0,6.01,4.37,4.37,0,*46
1495623754.32,6966,15.81,73620.3,6.03,4.57,4.53,0,*43
1495623755.53,6967,15.81,73620.3,6.05,4.53,4.45,0,*47
1495623756.75,6968,15.81,73618.0,6.01,3.79,3.59,0,*49
1495623757.98,6969,15.81,73622.0,6.01,3.67,3.59,0,*47
1495623759.18,6970,15.81,73620.5,5.97,4.23,4.19,0,*47
1495623760.42,6971,15.81,73620.5,5.99,4.75,4.75,0,*41
1495623761.61,6972,15.81,73620.8,5.99,5.27,5.29,0,*4C
1495623762.81,6973,15.81,73620.8,6.01,5.37,5.37,0,*41
1495623764.03,6974,15.81,73622.3,5.97,5.51,5.59,0,*42
1495623765.26,6975,15.81,73622.0,5.99,5.51,5.51,0,*45
1495623766.46,6976,15.81,73620.5,6.03,5.55,5.67,0,*47
1495623767.67,6977,15.81,73622.5,6.01,5.19,5.11,0,*4D
1495623768.87,6978,15.81,73620.5,6.01,5.37,5.33,0,*4E
1495623770.1,6979,15.81,73618.8,6.03,4.75,4.79,0,*45
1495623771.3,6980,15.81,73622.8,6.01,4.41,4.27,0,*4D
1495623772.53,6981,15.81,73622.5,6.01,3.79,3.81,0,*4B
1495623773.74,6982,15.81,73620.3,5.99,3.81,3.67,0,*45
1495623774.91,6983,15.81,73620.0,5.99,2.99,2.91,0,*44
1495623776.16,6984,15.81,73620.3,5.97,2.77,2.69,0,*4A
1495623777.36,6985,15.81,73622.5,5.95,3.53,3.59,0,*4C
1495623778.53,6986,15.81,73622.8,5.95,3.63,3.63,0,*45
1495623779.76,6987,15.81,73622.0,5.93,4.07,3.97,0,*4C
1495623780.97,6988,15.81,73620.8,5.93,4.41,4.41,0,*4D
1495623782.18,6989,15.81,73616.3,5.91,4.07,4.05,0,*4C
1495623783.39,6990,15.81,73622.5,5.91,4.37,4.31,0,*40
1495623784.57,6991,15.81,73622.0,5.91,4.19,4.15,0,*4B
1495623785.77,6992,15.81,73620.0,5.89,4.23,4.15,0,*48
1495623786.99,6993,15.81,73620.8,5.89,3.29,3.23,0,*46
1495623788.24,6994,15.81,73618.5,5.89,3.79,3.71,0,*43
1495623789.45,6995,15.81,73618.8,5.89,3.89,3.81,0,*42
1495623790.65,6996,15.81,73618.3,5.85,4.37,4.33,0,*41
1495623791.83,6997,15.81,73620.5,5.85,4.23,4.19,0,*4D
1495623793.03,6998,15.81,73618.5,5.83,3.67,3.59,0,*40
1495623794.22,6999,15.81,73618.0,5.83,3.63,3.53,0,*4F
1495623795.44,7000,15.81,73620.8,5.83,3.67,3.67,0,*44
1495623796.63,7001,15.81,73620.3,5.81,3.81,3.81,0,*47
1495623797.85,7002,15.81,73620.0,5.79,2.89,2.89,0,*43
1495623799.04,7003,15.81,73614.3,5.79,3.11,2.99,0,*43
1495623800.24,7004,15.81,73620.3,5.75,2.69,2.65,0,*45
1495623801.43,7005,15.81,73618.3,5.75,3.25,3.19,0,*47
1495623802.64,7006,15.81,73618.3,5.75,3.53,3.49,0,*40
1495623803.86,7007,15.81,73620.5,5.73,3.67,3.55,0,*4D
1495623805.03,7008,15.81,73616.3,5.71,3.93,3.93,0,*41
1495623806.21,7009,15.81,73622.5,5.73,4.23,4.27,0,*46
1495623807.42,7010,15.81,73620.3,5.71,3.53,3.49,0,*43
1495623808.64,7011,15.81,73622.8,5.71,3.49,3.49,0,*49
1495623809.85,7012,15.81,73616.8,5.71,3.49,3.45,0,*46
1495623811.02,7013,15.81,73620.5,5.71,3.93,3.93,0,*4B
1495623812.21,7014,15.81,73620.0,5.71,3.11,2.99,0,*4D
1495623813.42,7015,15.81,73618.5,5.67,2.73,2.73,0,*4A
1495623814.64,7016,15.81,73616.0,5.67,3.23,3.23,0,*49
1495623815.83,7017,15.81,73620.0,5.67,3.29,3.11,0,*43
1495623817.0,7018,15.81,73622.0,5.67,2.99,2.95,0,*4B
1495623818.18,7019,15.81,73616.5,5.61,3.63,3.63,0,*40
1495623819.37,7020,15.81,73620.8,5.61,4.45,4.49,0,*46
1495623820.57,7021,15.81,73618.8,5.63,4.59,4.57,0,*47
1495623821.76,7022,15.81,73620.8,5.63,4.93,4.89,0,*41
1495623822.98,7023,15.81,73622.0,5.63,4.97,4.97,0,*4B
1495623824.19,7024,15.81,73616.8,5.63,5.27,5.27,0,*4C
1495623825.39,7025,15.81,73618.5,5.67,5.07,5.01,0,*4F
1495623826.58,7026,15.81,73616.8,5.67,4.93,4.85,0,*4D
1495623827.76,7027,15.81,73620.3,5.67,5.19,5.19,0,*4B
1495623828.95,7028,15.81,73620.5,5.69,5.49,5.49,0,*4A
1495623830.13,7029,15.81,73616.8,5.69,5.45,5.45,0,*4B
1495623831.32,7030,15.81,73620.8,5.73,5.63,5.63,0,*48
1495623832.51,7031,15.81,73618.5,5.71,5.11,5.05,0,*4E
1495623833.68,7032,15.81,73618.8,5.71,5.15,5.11,0,*4C
1495623834.9,7033,15.81,73616.0,5.71,4.97,4.97,0,*49
1495623836.08,7034,15.81,73616.3,5.73,4.45,4.45,0,*4C
1495623837.3,7035,15.81,73620.5,5.71,3.49,3.45,0,*43
1495623838.52,7036,15.81,73622.0,5.71,3.71,3.71,0,*4C
1495623839.73,7037,15.81,73622.5,5.69,4.05,3.85,0,*4B
1495623840.92,7038,15.81,73622.0,5.69,4.15,4.15,0,*4B
1495623842.09,7039,15.81,73620.8,5.67,3.81,3.81,0,*44
1495623843.29,7040,15.81,73616.8,5.67,3.67,3.59,0,*47
1495623844.45,7041,15.81,73620.3,5.67,3.59,3.59,0,*4B
1495623845.69,7042,15.81,73622.5,5.61,3.19,3.07,0,*41
1495623846.9,7043,15.81,73616.5,5.61,3.25,3.19,0,*40
1495623848.1,7044,15.81,73620.8,5.61,4.37,4.33,0,*4C
1495623849.32,7045,15.81,73622.0,5.59,4.75,4.67,0,*41
1495623850.51,7046,15.81,73618.3,5.61,4.89,4.89,0,*4A
1495623851.69,7047,15.81,73616.5,5.61,4.81,4.81,0,*4B
1495623852.89,7048,15.81,73618.8,5.61,4.45,4.33,0,*45
1495623854.06,7049,15.81,73620.5,5.59,4.41,4.33,0,*4B
1495623855.28,7050,15.81,73620.5,5.63,4.79,4.71,0,*47
1495623856.47,7051,15.81,73616.3,5.61,4.57,4.49,0,*43
1495623857.69,7052,15.81,73618.0,5.63,4.67,4.67,0,*4D
1495623858.88,7053,15.81,73620.0,5.61,4.89,4.81,0,*46
1495623860.1,7054,15.81,73618.3,5.63,5.05,4.97,0,*41
1495623861.29,7055,15.81,73620.0,5.61,4.81,4.89,0,*40
1495623862.52,7056,15.81,73616.5,5.61,3.53,3.53,0,*4B
1495623863.73,7057,15.81,73618.8,5.61,3.97,3.89,0,*45
1495623864.9,7058,15.81,73616.3,5.59,3.85,3.85,0,*4E
1495623866.1,7059,15.81,73618.3,5.59,3.71,3.63,0,*4C
1495623867.32,7060,15.81,73616.8,5.59,4.31,4.31,0,*45
1495623868.5,7061,15.81,73612.5,5.59,4.53,4.45,0,*43
1495623869.69,7062,15.81,73618.5,5.57,4.41,4.33,0,*4C
1495623870.89,7063,15.81,73612.5,5.57,4.57,4.57,0,*48
1495623872.08,7064,15.81,73614.3,5.59,4.57,4.63,0,*46
1495623873.31,7065,15.81,73618.8,5.57,5.05,5.11,0,*4B
1495623874.52,7066,15.81,73618.0,5.59,5.27,5.27,0,*43
1495623875.72,7067,15.81,73618.5,5.59,5.27,5.23,0,*46
1495623876.92,7068,15.81,73618.0,5.59,5.05,5.15,0,*4C
1495623878.09,7069,15.81,73616.0,5.59,4.85,4.85,0,*4C
1495623879.28,7070,15.81,73616.5,5.59,5.27,5.33,0,*41
1495623880.49,7071,15.81,73616.0,5.61,5.15,5.05,0,*4F
1495623881.74,7072,15.81,73618.3,5.61,5.05,4.93,0,*43
1495623882.96,7073,15.81,73616.5,5.61,4.93,4.81,0,*4F
1495623884.2,7074,15.81,73612.0,5.61,4.93,4.93,0,*4B
1495623885.44,7075,15.81,73616.5,5.61,5.27,5.27,0,*4A
1495623886.63,7076,15.81,73612.8,5.61,5.41,5.37,0,*48
1495623887.86,7077,15.81,73610.8,5.61,5.51,5.51,0,*48
1495623889.02,7078,15.81,73614.8,5.67,5.41,5.29,0,*4F
1495623890.21,7079,15.81,73614.0,5.67,5.55,5.49,0,*4D
1495623891.42,7080,15.81,73614.8,5.67,5.55,5.51,0,*42
1495623892.59,7081,15.81,73618.0,5.67,5.41,5.33,0,*42
1495623893.77,7082,15.81,73618.3,5.67,5.19,5.19,0,*44
1495623894.95,7083,15.81,73616.0,5.67,5.19,5.23,0,*4C
1495623896.12,7084,15.81,73614.5,5.67,5.07,5.07,0,*42
1495623897.28,7085,15.81,73614.0,5.67,4.85,4.81,0,*47
1495623898.46,7086,15.81,73612.8,5.67,5.19,5.19,0,*40
1495623899.63,7087,15.81,73618.3,5.67,5.33,5.33,0,*41
1495623900.81,7088,15.81,73616.8,5.69,5.49,5.45,0,*4C
1495623902.0,7089,15.81,73614.8,5.67,5.45,5.51,0,*4A
1495623903.19,7090,15.81,73614.3,5.69,5.59,5.59,0,*49
1495623904.42,7091,15.81,73616.8,5.69,5.55,5.55,0,*48
1495623905.64,7092,15.81,73618.3,5.69,5.59,5.55,0,*47
1495623906.83,7093,15.81,73614.5,5.69,5.67,5.59,0,*47
1495623908.04,7094,15.81,73614.3,5.69,5.71,5.73,0,*4F
1495623909.25,7095,15.81,73616.3,5.69,5.49,5.55,0,*41
1495623910.41,7096,15.81,73616.0,5.71,4.89,4.89,0,*46
1495623911.65,7097,15.81,73618.3,5.73,4.67,4.59,0,*48
1495623912.87,7098,15.81,73616.8,5.69,4.57,4.63,0,*46
1495623914.06,7099,15.81,73614.3,5.69,4.53,4.53,0,*40
1495623915.25,7100,15.81,73618.8,5.69,5.23,5.33,0,*40
1495623916.45,7101,15.81,73616.8,5.69,5.59,5.59,0,*40
1495623917.64,7102,15.81,73618.8,5.69,5.59,5.67,0,*4E
1495623918.82,7103,15.81,73616.5,5.71,5.49,5.55,0,*46
1495623920.02,7104,15.81,73612.8,5.71,5.11,5.05,0,*49
1495623921.23,7105,15.81,73618.0,5.71,5.05,5.05,0,*4D
1495623922.4,7106,15.81,73612.5,5.71,5.15,5.15,0,*4E
1495623923.57,7107,15.81,73614.8,5.71,5.23,5.23,0,*4F
1495623924.74,7108,15.81,73616.0,5.71,5.23,5.23,0,*40
1495623925.96,7109,15.81,73616.0,5.71,5.05,5.05,0,*41
1495623927.15,7110,15.81,73614.5,5.73,5.49,5.49,0,*4B
1495623928.33,7111,15.81,73614.8,5.71,5.55,5.59,0,*44
1495623929.5,7112,15.81,73614.5,5.71,5.15,5.23,0,*4E
1495623930.69,7113,15.81,73618.3,5.73,4.49,4.53,0,*43
1495623931.91,7114,15.81,73616.5,5.71,4.75,4.79,0,*41
1495623933.07,7115,15.81,73612.5,5.71,4.45,4.41,0,*48
1495623934.29,7116,15.81,73612.5,5.71,4.97,5.05,0,*45
1495623935.51,7117,15.81,73614.5,5.71,5.01,5.01,0,*4E
1495623936.77,7118,15.81,73616.0,5.69,5.05,5.01,0,*4C
1495623937.96,7119,15.81,73612.5,5.69,4.41,4.41,0,*49
1495623939.15,7120,15.81,73614.3,5.69,4.33,4.33,0,*43
1495623940.34,7121,15.81,73614.5,5.69,4.45,4.45,0,*42
1495623941.59,7122,15.81,73612.0,5.69,4.79,4.75,0,*4D
1495623942.83,7123,15.81,73614.0,5.69,4.75,4.75,0,*40
1495623944.0,7124,15.81,73616.5,5.67,5.33,5.33,0,*49
1495623945.16,7125,15.81,73612.0,5.71,5.45,5.37,0,*4A
1495623946.33,7126,15.81,73612.5,5.67,5.07,5.11,0,*4C
1495623947.49,7127,15.81,73616.0,5.67,4.85,4.85,0,*4A
1495623948.69,7128,15.81,73614.0,5.67,4.59,4.53,0,*4F
1495623949.86,7129,15.81,73612.8,5.67,4.53,4.53,0,*44
1495623951.02,7130,15.81,73616.8,5.67,4.85,4.81,0,*48
1495623952.24,7131,15.81,73614.3,5.67,4.63,4.59,0,*44
1495623953.46,7132,15.81,73616.3,5.67,4.93,4.93,0,*4E
1495623954.62,7133,15.81,73616.3,5.67,5.45,5.45,0,*4F
1495623955.8,7134,15.81,73612.8,5.67,5.11,5.19,0,*40
1495623957.01,7135,15.81,73616.0,5.67,5.55,5.55,0,*49
1495623958.18,7136,15.81,73614.8,5.67,5.67,5.71,0,*4D
1495623959.42,7137,15.81,73616.0,5.69,5.81,5.81,0,*45
1495623960.63,7138,15.81,73614.5,5.67,5.55,5.51,0,*40
1495623961.81,7139,15.81,73614.0,5.69,5.37,5.45,0,*4E
1495623963.04,7140,15.81,73614.8,5.69,5.55,5.55,0,*45
1495623964.25,7141,15.81,73616.0,5.71,5.73,5.73,0,*4D
1495623965.47,7142,15.81,73618.3,5.71,5.81,5.81,0,*4E
1495623966.66,7143,15.81,73616.0,5.73,6.11,6.07,0,*4A
1495623967.81,7144,15.81,73614.5,5.71,5.45,5.49,0,*44
1495623969.04,7145,15.81,73616.5,5.71,5.01,5.01,0,*49
1495623970.27,7146,15.81,73616.3,5.73,5.51,5.51,0,*48
1495623971.48,7147,15.81,73616.0,5.71,5.77,5.73,0,*4F
1495623972.71,7148,15.81,73612.3,5.73,5.77,5.77,0,*46
1495623973.94,7149,15.81,73612.8,5.73,5.73,5.73,0,*47
1495623975.17,7150,15.81,73618.0,5.73,5.77,5.77,0,*4F
1495623976.37,7151,15.81,73612.0,5.73,5.99,5.99,0,*4E
1495623977.6,7152,15.81,73612.5,5.73,5.77,5.77,0,*4D
1495623978.8,7153,15.81,73612.3,5.75,5.89,5.99,0,*4B
1495623980.01,7154,15.81,73616.3,5.75,5.89,5.89,0,*4D
1495623981.26,7155,15.81,73618.5,5.77,5.89,5.89,0,*4E
1495623982.48,7156,15.81,73612.0,5.77,5.89,5.99,0,*4C
1495623983.67,7157,15.81,73616.5,5.77,6.11,6.11,0,*4C
1495623984.91,7158,15.81,73618.0,5.77,5.93,5.93,0,*43
1495623986.08,7159,15.81,73618.8,5.79,5.95,5.95,0,*4C
1495623987.25,7160,15.81,73612.8,5.79,5.49,5.59,0,*47
1495623988.44,7161,15.81,73614.3,5.81,5.59,5.59,0,*40
1495623989.63,7162,15.81,73616.3,5.81,5.45,5.37,0,*46
1495623990.84,7163,15.81,73612.0,5.79,5.85,5.85,0,*45
1495623992.08,7164,15.81,73614.0,5.81,5.85,5.85,0,*45
1495623993.27,7165,15.81,73612.8,5.81,5.59,5.67,0,*49
1495623994.46,7166,15.81,73614.5,5.81,5.71,5.71,0,*47
1495623995.64,7167,15.81,73618.8,5.81,5.45,5.37,0,*43
1495623996.82,7168,15.81,73610.8,5.83,5.95,5.95,0,*4B
1495623997.99,7169,15.81,73614.5,5.83,5.95,5.99,0,*46
1495623999.17,7170,15.81,73612.8,5.83,5.99,5.99,0,*42
1495624000.36,7171,15.81,73610.8,5.83,6.11,6.17,0,*45
1495624001.53,7172,15.81,73612.8,5.83,5.63,5.63,0,*40
1495624002.75,7173,15.81,73618.0,5.83,5.27,5.27,0,*41
1495624003.92,7174,15.81,73614.5,5.83,5.19,5.19,0,*46
1495624005.09,7175,15.81,73612.0,5.83,5.29,5.29,0,*47
1495624006.26,7176,15.81,73614.3,5.83,5.29,5.19,0,*47
1495624007.46,7177,15.81,73616.5,5.81,5.71,5.77,0,*41
1495624008.65,7178,15.81,73614.3,5.81,5.45,5.49,0,*44
1495624009.84,7179,15.81,73614.8,5.81,5.11,5.11,0,*49
1495624011.02,7180,15.81,73612.5,5.83,5.11,5.11,0,*4D
1495624012.26,7181,15.81,73612.3,5.81,5.85,5.85,0,*4E
1495624013.47,7182,15.81,73614.8,5.81,6.07,6.13,0,*48
1495624014.63,7183,15.81,73612.8,5.83,6.07,6.07,0,*4E
1495624015.85,7184,15.81,73618.0,5.83,5.85,5.89,0,*45
1495624017.06,7185,15.81,73612.3,5.83,5.85,5.85,0,*48
1495624018.28,7186,15.81,73612.3,5.85,5.89,5.95,0,*40
1495624019.48,7187,15.81,73612.8,5.85,5.99,5.99,0,*4C
1495624020.67,7188,15.81,73612.8,5.85,5.59,5.59,0,*43
1495624021.88,7189,15.81,73614.5,5.85,5.15,5.05,0,*43
1495624023.07,7190,15.81,73612.8,5.85,4.89,4.89,0,*4A
1495624024.28,7191,15.81,73614.5,5.83,5.27,5.27,0,*4D
1495624025.47,7192,15.81,73612.8,5.85,5.37,5.37,0,*48
1495624026.67,7193,15.81,73616.8,5.85,5.19,5.15,0,*45
1495624027.86,7194,15.81,73614.5,5.85,5.11,5.11,0,*4E
1495624029.1,7195,15.81,73612.8,5.85,5.89,5.89,0,*4F
1495624030.29,7196,15.81,73614.5,5.83,5.49,5.51,0,*43
1495624031.46,7197,15.81,73614.5,5.83,5.49,5.41,0,*43
1495624032.68,7198,15.81,73612.0,5.83,5.81,5.85,0,*40
1495624033.89,7199,15.81,73614.5,5.83,5.85,5.89,0,*49
1495624035.09,7200,15.81,73618.5,5.85,5.95,5.99,0,*4C
1495624036.33,7201,15.81,73612.0,5.85,5.81,5.81,0,*41
1495624037.52,7202,15.81,73614.8,5.85,5.63,5.71,0,*41
1495624038.71,7203,15.81,73612.8,5.85,5.71,5.59,0,*49
1495624039.89,7204,15.81,73612.3,5.85,5.29,5.29,0,*44
1495624041.13,7205,15.81,73614.3,5.85,5.73,5.73,0,*45
1495624042.34,7206,15.81,73612.0,5.85,5.51,5.59,0,*4E
1495624043.6,7207,15.81,73612.8,5.89,4.71,4.75,0,*4F
1495624044.8,7208,15.81,73612.0,5.85,5.11,5.11,0,*48
1495624045.98,7209,15.81,73614.0,5.83,4.37,4.37,0,*4F
1495624047.14,7210,15.81,73614.8,5.83,4.45,4.45,0,*47
1495624048.34,7211,15.81,73614.8,5.81,4.15,4.07,0,*47
1495624049.5,7212,15.81,73610.8,5.79,4.57,4.45,0,*43
1495624050.67,7213,15.81,73612.3,5.79,4.57,4.45,0,*42
1495624051.84,7214,15.81,73612.8,5.79,4.85,4.85,0,*46
1495624053.03,7215,15.81,73612.3,5.77,4.85,4.85,0,*49
1495624054.27,7216,15.81,73612.8,5.77,4.93,4.93,0,*4A
1495624055.45,7217,15.81,73614.8,5.79,5.67,5.67,0,*45
1495624056.62,7218,15.81,73612.3,5.79,5.07,5.07,0,*4A
1495624057.79,7219,15.81,73612.3,5.79,5.11,5.19,0,*43
1495624058.98,7220,15.81,73614.3,5.79,5.33,5.27,0,*44
1495624060.2,7221,15.81,73614.5,5.77,4.97,4.81,0,*49
1495624061.37,7222,15.81,73612.0,5.75,4.33,4.45,0,*4E
1495624062.59,7223,15.81,73612.0,5.75,3.67,3.67,0,*4E
1495624063.8,7224,15.81,73614.3,5.75,4.01,4.01,0,*49
1495624064.99,7225,15.81,73618.5,5.73,4.81,4.89,0,*46
1495624066.23,7226,15.81,73614.0,5.73,4.93,4.93,0,*4D
1495624067.46,7227,15.81,73614.8,5.73,5.05,5.07,0,*4E
1495624068.65,7228,15.81,73612.8,5.73,5.41,5.37,0,*42
1495624069.81,7229,15.81,73610.3,5.71,5.23,5.37,0,*45
1495624071.02,7230,15.81,73612.8,5.73,5.27,5.19,0,*47
1495624072.21,7231,15.81,73612.5,5.73,5.15,5.15,0,*4B
1495624073.43,7232,15.81,73614.3,5.73,5.07,5.05,0,*4A
1495624074.64,7233,15.81,73614.3,5.73,4.93,4.89,0,*42
1495624075.83,7234,15.81,73614.0,5.71,4.97,4.89,0,*43
1495624077.05,7235,15.81,73612.3,5.71,5.05,4.97,0,*47
1495624078.22,7236,15.81,73612.8,5.71,4.41,4.41,0,*4E
1495624079.41,7237,15.81,73616.0,5.71,4.97,4.89,0,*40
1495624080.57,7238,15.81,73612.8,5.71,5.11,5.15,0,*44
1495624081.74,7239,15.81,73612.3,5.71,5.59,5.59,0,*41
1495624082.92,7240,15.81,73612.8,5.71,5.59,5.73,0,*47
1495624084.11,7241,15.81,73614.8,5.73,5.71,5.71,0,*4C
1495624085.31,7242,15.81,73612.8,5.73,5.07,5.07,0,*4F
1495624086.5,7243,15.81,73614.3,5.73,5.15,5.15,0,*4E
1495624087.66,7244,15.81,73614.3,5.71,5.59,5.59,0,*4B
1495624088.9,7245,15.81,73614.5,5.73,5.73,5.77,0,*4C
1495624090.13,7246,15.81,73612.5,5.73,5.77,5.89,0,*4A
1495624091.37,7247,15.81,73610.8,5.73,5.85,5.85,0,*4A
1495624092.54,7248,15.81,73614.8,5.75,5.59,5.59,0,*43
1495624093.73,7249,15.81,73612.8,5.73,5.15,5.15,0,*44
1495624094.91,7250,15.81,73614.5,5.75,5.27,5.29,0,*44
1495624096.13,7251,15.81,73612.5,5.75,5.05,5.05,0,*4B
1495624097.36,7252,15.81,73614.0,5.75,5.01,5.01,0,*48
1495624098.56,7253,15.81,73612.3,5.75,4.59,4.57,0,*47
1495624099.81,7254,15.81,73610.8,5.73,4.93,4.93,0,*48
1495624100.99,7255,15.81,73612.0,5.73,5.29,5.41,0,*47
1495624102.24,7256,15.81,73614.8,5.73,4.93,4.93,0,*4A
1495624103.49,7257,15.81,73608.8,5.73,4.71,4.67,0,*4C
1495624104.73,7258,15.81,73614.3,5.73,5.05,5.05,0,*44
1495624105.91,7259,15.81,73614.8,5.71,5.27,5.33,0,*42
1495624107.09,7260,15.81,73612.0,5.71,5.23,5.23,0,*4D
1495624108.32,7261,15.81,73614.0,5.73,5.73,5.77,0,*4A
1495624109.54,7262,15.81,73616.0,5.73,5.73,5.71,0,*4F
1495624110.74,7263,15.81,73614.5,5.73,5.19,5.19,0,*4C
1495624111.92,7264,15.81,73610.8,5.73,5.29,5.41,0,*45
1495624113.09,7265,15.81,73616.3,5.75,5.59,5.59,0,*4C
1495624114.28,7266,15.81,73612.8,5.73,5.63,5.71,0,*4A
1495624115.49,7267,15.81,73614.0,5.73,5.51,5.63,0,*49
1495624116.68,7268,15.81,73614.3,5.75,5.51,5.59,0,*49
1495624117.88,7269,15.81,73614.3,5.75,5.51,5.59,0,*48
1495624119.07,7270,15.81,73612.8,5.75,5.51,5.59,0,*40
1495624120.23,7271,15.81,73616.3,5.75,5.59,5.63,0,*40
1495624121.4,7272,15.81,73614.3,5.75,5.71,5.71,0,*4A
1495624122.57,7273,15.81,73612.5,5.75,5.71,5.71,0,*4B
1495624123.74,7274,15.81,73612.8,5.75,5.63,5.71,0,*4F
1495624124.94,7275,15.81,73616.3,5.75,5.77,5.77,0,*4D
1495624126.18,7276,15.81,73614.0,5.77,5.81,5.81,0,*4C
1495624127.36,7277,15.81,73614.5,5.77,5.45,5.45,0,*4D
1495624128.59,7278,15.81,73614.5,5.77,5.77,5.81,0,*4B
1495624129.83,7279,15.81,73614.8,5.77,5.81,5.89,0,*4B
1495624131.0,7280,15.81,73614.5,5.75,5.33,5.33,0,*47
1495624132.2,7281,15.81,73614.0,5.75,4.81,4.93,0,*45
1495624133.43,7282,15.81,73614.3,5.77,5.81,5.81,0,*47